THORAD DELTA 1 DEB, 42592

Orbit data source: Space-Track

THORAD DELTA 1 DEB, 42592 is space debris in SSO originally from a launch on Fri, 15 Nov 1974 UTC launched from the Air Force Western Test Range (AFWTR). Debris objects in space refer to the collection of defunct objects orbiting the Earth. Examples of debris include non-operational satellites, rocket bodies, and fragments generated from explosions, collisions, or faulty payload assembly.

Loading next visibility...
Identifier
42592, 1974-089CW
Orbit
SSO
Country
Flag of USUS
Related business
Manufacturer
Unknown
Mission
Spacecraft
Bus & Motor
Unknown
Mass
Unknown
Launch date (UTC)
1974-11-15 (51 years ago)
Launch vehicle
Unknown
Launch site
Air Force Western Test Range (AFWTR)
Object type
Payload
Rocket body
Debris
Shape & HBR
Unknown shape, 0.1 m
Radar Cross Section
Small (<0.1 m²)

Expand to show TLE details & history
Last TLE update: 1 week ago

TLE from 1 week ago
0 THORAD DELTA 1 DEB
1 42592U 74089CW  25280.29895457  .00000008  00000-0  34638-3 0  9991
2 42592 101.8298 228.2645 0033535   4.6822 355.4556 12.50285514501139
Epoch: 2025-10-07T07:10Z
TLE epoch observation values (Epoch: 2025-10-07T07:10:29.674Z)
Latitude
-0.00005°
Longitude
104.45102°
Altitude
1,439.654 km
Speed
7.154 km/s
True Right ascension
15h 13m 03s
True Declination
0° 00' 00"
Sunlit
Object was in daylight at epoch
Visualization orbit readout
Latitude
Unknown
Longitude
Unknown
Altitude
Unknown
Speed
Unknown
Apparent Right ascension
Unknown
Apparent Declination
Unknown
Sunlit
N/A
Visualization observer readout
Local Sidereal Time
07:52:31
Azimuth
Unknown
Elevation
Unknown
Doppler factor
Unknown
Orbital elements
Apogee altitude
1,487.14 km
Perigee altitude
1,434.564 km
Semi-major axis
7,838.989 km
Eccentricity
0.00335
Inclination
101.8298°
RAAN
228.2645°
Arg. of periapsis
4.6822°
True anomaly
355.42502°
Mean anomaly
355.4556°
Eccentric anomaly
355.44033°
Mean motion
3.12718 °/min
Orbital period
115.12 mins
BSTAR
0.00034638
Loading maneuver chart data...
Computing Atmospheric mass density...

Documentation

Showing up to 5 results
|